Date String (YYYY-MM-DD hh:mm:ss) UTC,Instrument flags,Ambient pressure (hPa),Sample flow (lpm),Bypass flow (lpm),Sample temperature (°C),Ambient temperature (°C),ASC tube jacket temperature (°C),LED temperature (°C),Box temperature (°C),Sample RH (%),Span deviation,Mass concentration (μg/m³),Mass concentration (μg/m³),Mass concentration (μg/m³)
DateTimeUTC,F1_M11,P_M11,Q1_M11,Q2_M11,T1_M11,T2_M11,T3_M11,T4_M11,T5_M11,U1_M11,ZSPAN_M11,X0_M11,X2_M11,X1_M11
2022-06-28 07:00:00,,0833.9,5.01,0.00,29.5,28.2,00.0,38.4,31.4,19.3,0000.0,0007.49,0003.25,0002.77
2022-06-28 07:01:00,,0833.9,5.00,0.00,29.5,28.2,00.0,38.4,31.4,19.2,0000.0,0007.21,0003.26,0002.78
2022-06-28 07:02:00,,0833.9,5.00,0.00,29.5,28.3,00.0,38.4,31.4,19.1,0000.0,0006.83,0003.29,0002.79
2022-06-28 07:03:00,,0833.8,5.01,0.00,29.5,28.3,00.0,38.4,31.4,19.0,0000.0,0006.90,0003.30,0002.79
2022-06-28 07:04:00,,0833.8,4.99,0.00,29.5,28.4,00.0,38.4,31.4,18.9,0000.0,0006.74,0003.26,0002.79
2022-06-28 07:05:00,,0833.7,5.00,0.00,29.6,28.4,00.0,38.4,31.4,19.0,0000.0,0007.26,0003.26,0002.79
2022-06-28 07:06:00,,0833.7,5.01,0.00,29.6,28.4,00.0,38.4,31.4,19.0,0000.0,0006.83,0003.24,0002.77
2022-06-28 07:07:00,,0833.7,5.00,0.00,29.6,28.5,00.0,38.4,31.4,18.9,0000.0,0006.79,0003.23,0002.78
2022-06-28 07:08:00,,0833.6,4.99,0.00,29.6,28.5,00.0,38.4,31.5,19.0,0000.0,0005.93,0003.25,0002.79
2022-06-28 07:09:00,,0833.6,4.99,0.00,29.6,28.5,00.0,38.4,31.5,19.1,0000.0,0005.94,0003.26,0002.79
2022-06-28 07:10:00,,0833.6,5.01,0.00,29.6,28.5,00.0,38.4,31.5,19.1,0000.0,0006.95,0003.26,0002.79
2022-06-28 07:11:00,,0833.6,5.00,0.00,29.6,28.6,00.0,38.4,31.5,19.0,0000.0,0007.04,0003.23,0002.78
2022-06-28 07:12:00,,0833.6,4.99,0.00,29.7,28.6,00.0,38.4,31.5,19.0,0000.0,0006.93,0003.22,0002.80
2022-06-28 07:13:00,,0833.7,5.00,0.00,29.7,28.6,00.0,38.5,31.5,19.0,0000.0,0006.94,0003.22,0002.80
2022-06-28 07:14:00,,0833.6,5.00,0.00,29.7,28.6,00.0,38.5,31.5,18.9,0000.0,0007.50,0003.25,0002.81
2022-06-28 07:15:00,,0833.6,5.01,0.00,29.7,28.6,00.0,38.5,31.5,18.9,0000.0,0007.71,0003.27,0002.80
2022-06-28 07:16:00,,0833.6,5.00,0.00,29.7,28.6,00.0,38.5,31.6,18.9,0000.0,0007.31,0003.26,0002.79
2022-06-28 07:17:00,,0833.6,5.00,0.00,29.7,28.6,00.0,38.5,31.6,18.9,0000.0,0007.33,0003.29,0002.80
2022-06-28 07:18:00,,0833.6,4.99,0.00,29.7,28.7,00.0,38.5,31.6,18.8,0000.0,0007.34,0003.28,0002.80
2022-06-28 07:19:00,,0833.6,5.00,0.00,29.7,28.7,00.0,38.5,31.6,18.7,0000.0,0007.19,0003.27,0002.79
2022-06-28 07:20:00,,0833.6,5.01,0.00,29.7,28.7,00.0,38.5,31.6,18.7,0000.0,0007.10,0003.26,0002.78
2022-06-28 07:21:00,,0833.6,5.00,0.00,29.8,28.7,00.0,38.5,31.6,18.7,0000.0,0006.21,0003.30,0002.79
2022-06-28 07:22:00,,0833.6,4.99,0.00,29.8,28.7,00.0,38.5,31.6,18.6,0000.0,0005.92,0003.32,0002.80
2022-06-28 07:23:00,,0833.5,5.00,0.00,29.8,28.7,00.0,38.6,31.7,18.6,0000.0,0005.86,0003.32,0002.79
2022-06-28 07:24:00,,0833.6,5.00,0.00,29.8,28.7,00.0,38.6,31.7,18.5,0000.0,0005.71,0003.29,0002.77
2022-06-28 07:25:00,,0833.5,4.99,0.00,29.8,28.7,00.0,38.6,31.7,18.5,0000.0,0005.78,0003.25,0002.75
2022-06-28 07:26:00,,0833.5,4.99,0.00,29.8,28.7,00.0,38.6,31.7,18.4,0000.0,0006.33,0003.25,0002.76
2022-06-28 07:27:00,,0833.5,5.00,0.00,29.8,28.8,00.0,38.6,31.7,18.4,0000.0,0007.58,0003.25,0002.77
2022-06-28 07:28:00,,0833.5,5.01,0.00,29.8,28.8,00.0,38.6,31.7,18.4,0000.0,0007.57,0003.24,0002.78
2022-06-28 07:29:00,,0833.5,5.00,0.00,29.8,28.8,00.0,38.6,31.7,18.4,0000.0,0007.62,0003.25,0002.78
2022-06-28 07:30:00,,0833.5,4.99,0.00,29.8,28.8,00.0,38.6,31.7,18.4,0000.0,0007.78,0003.27,0002.80
2022-06-28 07:31:00,,0833.5,5.01,0.00,29.8,28.8,00.0,38.6,31.7,18.3,0000.0,0007.92,0003.28,0002.81
2022-06-28 07:32:00,,0833.5,5.00,0.00,29.9,28.8,00.0,38.6,31.7,18.3,0000.0,0007.86,0003.26,0002.81
2022-06-28 07:33:00,,0833.5,5.00,0.00,29.9,28.8,00.0,38.7,31.7,18.3,0000.0,0007.84,0003.25,0002.81
2022-06-28 07:34:00,,0833.6,4.99,0.00,29.9,28.8,00.0,38.7,31.7,18.1,0000.0,0007.89,0003.27,0002.82
2022-06-28 07:35:00,,0833.6,5.00,0.00,29.9,28.8,00.0,38.7,31.7,18.1,0000.0,0007.99,0003.31,0002.85
2022-06-28 07:36:00,,0833.6,5.00,0.00,29.9,28.8,00.0,38.7,31.7,17.9,0000.0,0007.71,0003.36,0002.88
2022-06-28 07:37:00,,0833.6,5.01,0.00,29.9,28.8,00.0,38.7,31.8,17.9,0000.0,0007.04,0003.35,0002.90
2022-06-28 07:38:00,,0833.5,4.99,0.00,29.9,28.8,00.0,38.7,31.8,17.8,0000.0,0005.72,0003.36,0002.90
2022-06-28 07:39:00,,0833.6,5.00,0.00,29.9,28.8,00.0,38.7,31.7,17.7,0000.0,0005.57,0003.37,0002.91
2022-06-28 07:40:00,,0833.5,5.00,0.00,29.9,28.8,00.0,38.7,31.7,17.7,0000.0,0005.41,0003.35,0002.92
2022-06-28 07:41:00,,0833.5,5.00,0.00,29.9,28.8,00.0,38.7,31.7,17.5,0000.0,0005.25,0003.36,0002.91
2022-06-28 07:42:00,,0833.5,5.01,0.00,29.9,28.8,00.0,38.7,31.8,17.5,0000.0,0005.41,0003.39,0002.91
2022-06-28 07:43:00,,0833.5,5.00,0.00,29.9,28.8,00.0,38.7,31.8,17.6,0000.0,0005.43,0003.38,0002.91
2022-06-28 07:44:00,,0833.4,5.00,0.00,29.9,28.8,00.0,38.7,31.7,17.5,0000.0,0005.45,0003.38,0002.90
2022-06-28 07:45:00,,0833.4,4.98,0.00,29.9,28.8,00.0,38.7,31.7,17.5,0000.0,0005.31,0003.35,0002.90
2022-06-28 07:46:00,,0833.4,5.01,0.00,29.9,28.9,00.0,38.7,31.8,17.5,0000.0,0005.22,0003.31,0002.87
2022-06-28 07:47:00,,0833.5,4.99,0.00,30.0,28.9,00.0,38.8,31.8,17.6,0000.0,0005.28,0003.29,0002.84
2022-06-28 07:48:00,,0833.4,4.99,0.00,29.9,28.9,00.0,38.8,31.8,17.6,0000.0,0005.44,0003.28,0002.81
2022-06-28 07:49:00,,0833.4,5.00,0.00,30.0,28.9,00.0,38.8,31.8,17.5,0000.0,0005.34,0003.26,0002.78
2022-06-28 07:50:00,,0833.4,5.01,0.00,30.0,28.9,00.0,38.8,31.8,17.5,0000.0,0005.42,0003.26,0002.75
2022-06-28 07:51:00,,0833.4,5.01,0.00,30.0,28.9,00.0,38.8,31.8,17.5,0000.0,0005.48,0003.26,0002.72
2022-06-28 07:52:00,,0833.4,4.99,0.00,30.0,28.9,00.0,38.8,31.8,17.5,0000.0,0005.26,0003.22,0002.71
2022-06-28 07:53:00,,0833.4,5.00,0.00,30.0,28.9,00.0,38.8,31.8,17.4,0000.0,0005.67,0003.16,0002.69
2022-06-28 07:54:00,,0833.4,5.00,0.00,30.0,28.9,00.0,38.8,31.8,17.4,0000.0,0005.84,0003.14,0002.68
2022-06-28 07:55:00,,0833.5,4.99,0.00,30.0,28.9,00.0,38.8,31.8,17.4,0000.0,0005.81,0003.14,0002.66
2022-06-28 07:56:00,,0833.5,5.01,0.00,30.0,28.9,00.0,38.8,31.9,17.3,0000.0,0005.98,0003.15,0002.64
2022-06-28 07:57:00,,0833.5,5.00,0.00,30.0,28.9,00.0,38.8,31.9,17.3,0000.0,0005.99,0003.14,0002.63
2022-06-28 07:58:00,,0833.4,5.00,0.00,30.0,28.9,00.0,38.8,31.9,17.2,0000.0,0005.83,0003.12,0002.63
2022-06-28 07:59:00,,0833.4,5.00,0.00,30.0,28.9,00.0,38.8,31.9,17.3,0000.0,0005.84,0003.14,0002.63
